Temp
19 18 18 18 17 16 16 15 15 15 15 15 15 14 14 14 14 14 14 14 14 13 14 13 13 13 13 13 13 12 12 11 11 13 14 15 15 17 17 17 17 16 16
19 19 18 17 17 16 16 15 15 15 15 15 15 14 14 14 14 14 14 14 14 14 14 13 13 12 12 12 12 12 11 11 11 13 13 14 14 16 17 17 17 18 17
19 19 19 17 17 16 16 15 15 15 15 15 14 14 14 14 14 14 14 14 14 14 13 13 12 12 12 12 12 11 10 10 11 11 12 13 14 15 16 16 17 17 18
20 19 18 18 17 16 16 15 15 15 15 15 15 15 14 14 15 14 14 13 14 14 13 13 12 12 11 11 12 12 11 10 11 10 11 13 13 15 15 16 16 16 17
20 19 19 18 17 16 16 16 16 15 15 15 15 15 15 14 15 15 14 14 14 14 13 12 12 11 11 11 11 12 11 10 10 11 10 11 13 14 14 16 16 16 17
20 19 18 17 17 16 16 16 16 16 15 15 15 15 15 15 15 15 14 14 14 14 13 12 12 12 11 11 11 11 10 9 9 9 9 10 11 13 14 15 16 16 16
20 19 18 18 17 17 16 16 16 16 15 15 15 15 15 15 14 14 14 14 14 14 13 12 12 12 12 11 11 10 11 10 9 9 9 10 10 13 14 14 15 16 16
20 20 19 18 17 17 17 17 16 16 16 16 15 15 15 14 14 14 14 14 14 14 13 12 12 12 12 12 11 11 10 9 9 9 9 9 10 11 13 13 14 16 16
20 20 19 19 18 17 17 16 16 16 16 16 15 15 15 14 14 13 13 13 12 12 12 12 12 12 12 11 11 11 11 10 9 9 9 9 10 11 12 13 14 14 15
21 20 20 18 17 17 17 16 16 16 16 16 15 15 14 14 14 14 13 13 13 12 12 12 12 12 12 11 11 10 10 9 10 9 9 12 13 14 14 14 15 14 15
21 20 19 18 18 18 17 17 16 16 16 15 15 15 14 14 14 14 13 12 12 11 12 12 11 12 11 11 11 10 9 9 9 9 8 10 12 13 15 15 15 14 15
21 20 19 19 18 18 17 16 16 16 15 15 14 14 14 14 13 13 12 12 11 11 11 11 11 11 11 11 10 10 10 10 9 8 8 8 11 13 14 14 15 15 15
20 19 19 18 18 17 17 16 16 15 14 13 14 14 13 13 13 11 11 10 11 11 11 10 10 10 10 11 10 10 10 9 9 8 8 8 8 11 14 14 14 15 15
19 18 17 17 17 16 16 16 15 14 14 14 14 13 13 12 11 11 11 11 11 11 11 11 10 9 9 10 10 10 10 9 8 8 9 8 8 10 13 14 14 15 15
17 16 16 16 16 17 15 14 14 15 14 14 13 12 12 12 11 11 11 11 11 11 11 11 10 9 9 9 8 9 9 9 9 9 9 9 8 9 9 12 12 14 14
16 16 16 16 16 16 15 14 14 14 13 13 12 11 11 11 10 10 10 10 10 10 10 9 9 8 6 6 7 7 7 8 9 9 9 9 8 9 8 9 9 10 11
16 16 16 16 16 16 14 13 12 12 11 11 11 10 10 9 10 10 10 10 9 9 8 8 8 6 5 6 6 7 7 7 7 8 9 9 9 9 9 9 9 9 9
15 15 15 15 15 14 13 12 11 11 10 9 10 9 9 8 9 10 10 9 8 7 7 7 5 5 6 5 6 6 7 7 7 7 8 8 9 9 9 9 9 9 9
15 15 14 14 13 13 11 11 11 11 9 8 8 8 7 7 8 8 8 7 6 6 7 6 6 6 6 6 6 6 6 6 7 6 6 7 8 8 9 8 9 9 9
14 14 14 14 12 11 10 9 9 8 8 7 7 8 8 7 7 6 5 5 5 6 6 6 5 6 6 6 6 6 7 6 6 6 5 6 7 7 8 8 8 9 8
14 13 13 12 11 10 9 10 9 9 8 7 6 7 7 6 6 5 4 4 4 4 4 3 4 3 4 5 6 6 6 5 5 4 5 5 6 6 6 7 8 8 8
12 11 12 11 10 9 9 9 9 9 8 7 6 6 6 5 4 3 3 3 3 4 3 3 3 3 2 3 5 5 6 5 5 4 3 4 5 5 5 6 7 7 8
12 11 10 10 10 9 9 10 10 9 9 8 7 6 5 4 4 4 3 3 4 3 3 2 2 2 2 2 4 4 5 5 4 3 3 3 4 4 4 5 5 6 7
10 10 10 10 10 9 9 10 9 9 8 8 8 7 6 5 4 4 3 4 3 3 2 2 2 3 4 4 4 4 4 4 4 3 3 2 3 4 4 4 4 5 5
10 10 10 10 10 9 9 9 9 9 8 7 7 6 6 5 5 4 4 3 3 3 2 2 1 2 4 4 4 4 4 4 4 3 3 3 3 3 3 4 4 4 4
11 10 10 10 10 9 9 8 8 8 7 7 6 5 5 4 4 4 3 3 3 2 2 1 1 1 2 3 3 3 3 3 3 3 3 3 4 3 3 2 3 3 4
Height
1537 1538 1539 1540 1541 1541 1541 1542 1542 1542 1541 1541 1540 1538 1537 1536 1534 1532 1531 1529 1528 1526 1525 1523 1520 1518 1515 1511 1507 1503 1498 1494 1486 1477 1478 1478 1480 1482 1484 1484 1484 1478 1484
1534 1534 1535 1536 1537 1539 1539 1539 1539 1539 1538 1537 1536 1535 1534 1532 1531 1529 1527 1526 1524 1522 1520 1518 1516 1512 1510 1506 1502 1497 1491 1486 1479 1470 1469 1468 1470 1470 1472 1472 1472 1473 1480
1531 1531 1531 1533 1533 1534 1535 1536 1536 1535 1534 1533 1532 1531 1529 1528 1526 1524 1523 1522 1520 1518 1516 1513 1510 1507 1505 1501 1497 1492 1485 1478 1473 1465 1461 1460 1460 1462 1461 1463 1464 1468 1474
1526 1527 1527 1529 1530 1531 1533 1533 1532 1532 1531 1531 1529 1527 1526 1524 1522 1520 1518 1516 1516 1514 1511 1509 1506 1503 1499 1496 1492 1487 1481 1474 1467 1462 1456 1452 1452 1452 1453 1454 1455 1459 1465
1523 1524 1525 1526 1527 1527 1528 1529 1528 1528 1528 1527 1525 1524 1522 1521 1519 1517 1515 1513 1511 1509 1505 1503 1501 1498 1495 1492 1488 1482 1476 1470 1464 1456 1450 1446 1444 1443 1443 1445 1446 1448 1450
1518 1518 1520 1523 1523 1524 1525 1525 1524 1524 1524 1523 1521 1520 1519 1517 1515 1514 1512 1510 1507 1504 1500 1497 1495 1493 1490 1486 1483 1478 1474 1467 1459 1451 1445 1440 1434 1436 1437 1437 1438 1441 1441
1514 1516 1516 1518 1519 1519 1520 1519 1520 1521 1520 1519 1517 1516 1514 1513 1511 1509 1508 1506 1502 1498 1495 1491 1489 1488 1485 1481 1477 1472 1467 1461 1454 1445 1436 1431 1426 1424 1430 1429 1431 1434 1435
1509 1511 1511 1513 1514 1514 1514 1515 1516 1515 1514 1512 1511 1510 1509 1507 1506 1505 1503 1501 1498 1494 1490 1487 1484 1482 1479 1475 1470 1465 1460 1451 1444 1436 1425 1416 1412 1413 1415 1419 1421 1426 1429
1503 1504 1505 1507 1508 1509 1510 1511 1511 1511 1510 1508 1506 1504 1504 1503 1501 1499 1497 1495 1493 1491 1487 1484 1480 1477 1473 1471 1465 1459 1452 1442 1433 1420 1406 1396 1392 1394 1401 1408 1411 1417 1419
1496 1498 1500 1501 1504 1505 1505 1506 1506 1505 1505 1503 1501 1501 1500 1499 1496 1496 1492 1487 1485 1485 1484 1481 1477 1472 1470 1465 1459 1454 1446 1438 1424 1406 1389 1376 1374 1377 1384 1392 1402 1406 1411
1491 1493 1495 1497 1498 1500 1500 1501 1501 1501 1499 1497 1497 1495 1494 1495 1492 1489 1488 1485 1482 1481 1479 1476 1472 1468 1465 1460 1455 1451 1445 1435 1423 1406 1387 1372 1367 1368 1372 1381 1389 1394 1402
1488 1490 1492 1492 1494 1495 1496 1495 1496 1495 1493 1491 1491 1490 1490 1487 1487 1482 1482 1479 1480 1477 1474 1472 1468 1464 1460 1456 1451 1447 1442 1432 1421 1406 1392 1374 1366 1366 1368 1374 1381 1388 1394
1484 1486 1488 1489 1489 1490 1490 1488 1489 1489 1488 1488 1488 1486 1485 1482 1480 1478 1477 1478 1476 1472 1471 1468 1464 1460 1456 1452 1447 1443 1439 1431 1421 1409 1398 1385 1372 1365 1365 1372 1377 1383 1388
1479 1481 1483 1483 1483 1485 1483 1479 1479 1483 1483 1483 1483 1483 1481 1479 1476 1475 1475 1473 1470 1467 1465 1463 1461 1457 1454 1449 1444 1441 1438 1431 1425 1415 1403 1393 1382 1366 1363 1369 1374 1378 1382
1481 1478 1479 1479 1478 1478 1479 1468 1472 1473 1478 1479 1478 1477 1476 1476 1474 1472 1470 1468 1465 1463 1462 1461 1459 1455 1450 1446 1443 1439 1436 1431 1425 1418 1408 1401 1389 1381 1372 1369 1369 1369 1375
1475 1476 1477 1478 1476 1476 1473 1472 1471 1473 1474 1474 1474 1473 1472 1471 1470 1469 1467 1466 1464 1462 1461 1459 1456 1454 1451 1447 1443 1439 1435 1431 1426 1423 1415 1406 1401 1395 1386 1379 1374 1371 1371
1474 1473 1472 1473 1472 1472 1472 1470 1470 1471 1471 1470 1469 1469 1468 1467 1466 1465 1463 1463 1462 1460 1458 1455 1454 1453 1450 1447 1443 1440 1436 1433 1428 1422 1416 1412 1407 1404 1396 1389 1385 1384 1375
1469 1467 1468 1469 1469 1468 1468 1469 1469 1469 1468 1467 1467 1466 1464 1464 1462 1461 1460 1460 1460 1457 1455 1454 1454 1451 1449 1447 1444 1440 1437 1434 1431 1427 1422 1419 1414 1408 1405 1404 1397 1393 1389
1463 1463 1464 1465 1464 1466 1466 1467 1467 1466 1465 1465 1464 1464 1462 1460 1459 1458 1458 1457 1457 1456 1454 1454 1453 1451 1449 1448 1445 1442 1439 1436 1432 1429 1426 1423 1419 1415 1411 1409 1404 1398 1399
1459 1460 1462 1463 1460 1463 1463 1463 1464 1464 1463 1464 1462 1462 1460 1460 1458 1456 1456 1456 1455 1454 1453 1453 1453 1452 1450 1448 1446 1444 1441 1439 1436 1432 1429 1427 1424 1422 1419 1416 1412 1410 1406
1456 1457 1460 1460 1460 1460 1460 1460 1461 1463 1463 1462 1460 1459 1458 1457 1456 1456 1457 1456 1456 1455 1454 1454 1452 1451 1448 1448 1445 1443 1442 1440 1438 1435 1433 1431 1427 1424 1422 1420 1415 1415 1412
1453 1454 1457 1458 1458 1459 1460 1459 1460 1460 1461 1459 1458 1457 1457 1456 1455 1455 1456 1457 1457 1456 1454 1454 1453 1451 1449 1447 1444 1442 1440 1439 1438 1436 1435 1433 1430 1428 1426 1423 1420 1417 1415
1451 1453 1453 1454 1454 1455 1457 1458 1458 1459 1458 1458 1458 1455 1454 1454 1454 1454 1455 1456 1456 1455 1454 1452 1451 1449 1447 1445 1444 1442 1442 1440 1439 1437 1436 1435 1433 1431 1427 1424 1421 1419 1418
1450 1450 1451 1453 1453 1454 1454 1456 1455 1455 1455 1456 1456 1457 1457 1455 1454 1454 1454 1456 1455 1454 1452 1452 1449 1448 1446 1445 1444 1443 1443 1442 1441 1440 1438 1436 1434 1432 1431 1429 1427 1424 1422
1449 1450 1451 1451 1451 1450 1451 1452 1453 1453 1452 1453 1454 1454 1455 1455 1455 1455 1455 1454 1454 1454 1453 1452 1451 1447 1447 1446 1445 1445 1444 1443 1442 1441 1439 1437 1436 1435 1433 1432 1431 1430 1428
1446 1448 1448 1449 1449 1448 1448 1449 1449 1450 1450 1451 1452 1452 1452 1453 1453 1453 1453 1453 1454 1452 1452 1451 1450 1448 1446 1446 1445 1445 1445 1444 1443 1442 1440 1439 1437 1436 1435 1435 1434 1433 1433
Wind_Speed
17 13 12 10 7 8 8 6 8 10 12 14 15 15 16 16 17 17 19 18 16 17 19 17 17 21 20 25 25 28 34 33 38 45 41 39 38 36 32 34 35 40 29
17 13 9 8 7 10 10 8 10 11 12 13 14 16 18 19 20 19 18 17 19 21 19 17 17 21 18 23 28 32 30 35 33 38 38 39 37 37 33 35 33 34 38
17 16 11 10 9 9 9 8 9 12 11 12 15 18 19 19 19 19 20 19 19 19 20 18 18 21 17 22 29 35 33 33 39 30 31 36 37 37 35 30 32 35 25
19 15 11 12 11 9 9 9 12 10 13 16 18 19 18 17 19 20 20 20 20 20 23 24 20 21 18 23 29 34 40 36 34 37 32 29 32 36 37 35 33 32 30
22 16 14 15 13 9 10 11 10 11 14 16 18 16 17 18 19 17 17 20 21 24 26 25 21 21 25 27 32 35 37 45 39 39 36 35 36 35 37 35 39 36 35
19 18 15 15 13 12 11 13 13 14 17 17 16 17 21 20 19 21 21 20 23 25 26 27 24 23 24 29 30 32 35 41 42 41 39 36 38 38 37 36 35 36 33
24 19 17 18 15 15 14 13 15 16 16 15 18 20 22 20 19 19 20 23 28 27 26 27 26 24 22 24 29 32 39 44 41 40 41 39 38 40 38 38 37 37 39
24 19 18 18 17 17 17 15 16 16 16 19 19 23 20 22 20 20 21 25 26 27 25 26 23 23 23 24 28 32 41 43 42 43 42 42 39 38 35 36 36 37 35
27 23 21 19 19 20 19 17 17 17 17 19 22 21 21 19 19 21 22 18 23 26 26 24 22 22 23 23 28 30 39 45 47 46 38 36 41 41 37 36 39 37 38
24 22 20 20 20 20 19 17 16 18 20 25 18 21 19 18 25 29 27 24 21 23 23 22 22 21 22 26 23 31 37 46 46 54 49 24 24 35 44 41 41 34 42
22 21 19 20 20 20 20 18 20 22 28 19 20 24 22 24 23 26 20 19 19 20 25 21 19 22 25 23 25 30 32 38 42 50 51 31 11 19 32 44 42 37 37
19 18 18 19 20 17 17 18 19 22 22 20 20 20 19 19 22 23 29 18 15 20 20 15 18 22 23 24 24 19 28 39 35 44 49 52 18 6 18 35 40 42 39
11 13 18 17 16 20 21 18 20 20 19 19 19 22 16 17 22 15 9 14 21 18 14 14 17 19 23 26 18 15 23 32 39 36 40 48 44 14 14 25 29 39 40
14 16 14 18 21 19 21 19 13 15 17 12 10 13 17 13 15 12 18 17 17 15 15 13 9 16 25 19 15 11 14 24 28 32 37 42 51 31 2 14 23 27 32
12 10 15 13 14 17 23 17 13 18 20 17 16 16 14 12 15 19 18 18 17 14 12 10 8 14 24 20 17 13 13 16 24 28 30 35 46 49 36 4 7 20 28
7 8 10 12 11 12 10 9 9 13 16 16 16 15 15 16 17 16 15 15 12 9 10 9 8 14 19 19 18 17 16 16 17 21 25 31 34 40 43 41 34 19 12
12 11 8 8 10 9 7 9 10 12 13 15 15 16 11 10 13 15 15 12 6 3 5 7 12 13 15 14 15 15 17 18 19 15 20 25 25 24 38 40 43 38 38
6 5 6 7 5 6 9 9 4 7 9 14 11 7 9 13 16 17 11 6 3 4 5 9 7 8 9 11 12 14 15 15 19 20 17 18 21 26 27 27 28 33 36
1 3 5 6 7 6 4 4 5 8 6 5 7 5 6 12 16 17 5 3 3 4 8 6 8 10 12 12 12 13 16 18 18 21 22 21 21 20 22 22 24 25 25
5 9 10 8 6 4 5 3 4 6 7 5 7 11 11 11 14 11 10 4 2 4 7 7 7 9 10 11 12 13 13 14 17 18 19 19 18 20 19 20 19 18 22
6 7 5 5 4 8 6 5 4 4 6 8 10 12 11 10 8 5 3 5 3 7 7 6 8 11 13 11 10 10 10 10 12 16 16 17 15 16 17 15 15 16 15
6 5 4 10 9 7 6 4 6 6 7 7 9 9 9 7 9 6 1 2 4 5 4 6 3 6 6 10 11 9 8 7 8 11 15 16 16 16 13 16 16 17 16
7 6 8 11 11 9 8 10 7 6 7 5 6 7 7 3 6 3 3 2 2 3 3 4 4 3 3 7 9 10 11 11 9 12 15 16 17 20 18 20 20 17 17
5 7 11 13 12 12 9 8 10 11 12 6 7 6 5 5 2 5 2 2 2 2 2 4 9 6 5 7 8 10 11 11 11 12 13 16 14 18 17 20 23 21 19
6 6 6 8 10 10 9 9 10 10 7 7 7 6 6 6 5 3 2 1 1 2 3 0 1 9 6 6 6 7 7 8 9 10 10 11 12 11 15 15 16 18 19
8 8 9 10 10 10 10 10 10 10 9 9 8 8 8 7 7 5 4 3 2 2 1 2 4 4 9 4 4 4 5 5 6 7 9 9 8 10 10 13 11 14 15
Wind_Direction
191 200 204 230 223 241 266 278 275 274 279 287 291 292 298 301 294 296 295 302 299 295 305 314 311 318 335 341 337 334 337 310 292 282 278 275 269 269 259 259 259 250 243
200 203 225 241 215 219 245 262 272 281 280 278 288 294 295 294 295 288 296 285 285 296 300 304 303 310 323 336 341 348 329 337 316 280 280 276 269 271 266 264 253 253 249
197 205 220 229 233 237 241 264 278 283 295 302 292 296 299 295 300 298 288 292 291 300 300 293 292 308 326 339 344 344 341 339 330 306 292 279 270 265 266 258 252 252 265
211 205 217 236 251 242 242 258 270 287 291 296 301 306 305 302 308 297 290 281 300 299 291 293 288 297 311 322 329 332 342 332 334 327 301 283 276 265 261 254 254 243 233
204 204 213 223 239 247 240 263 279 280 285 292 304 308 306 299 297 294 296 307 309 307 298 291 286 286 302 312 324 326 328 334 324 328 318 299 270 270 256 250 241 247 247
205 215 218 221 228 241 239 252 269 277 278 286 294 299 297 289 284 295 301 304 306 307 301 289 284 288 302 310 321 328 322 329 327 323 314 297 288 263 262 251 243 237 239
217 217 218 218 225 231 238 246 256 271 288 291 287 291 295 290 287 294 298 306 309 307 300 291 292 291 311 313 322 321 330 328 327 321 305 294 286 263 255 252 248 236 236
222 222 221 224 228 232 236 248 255 272 282 281 288 293 289 290 284 295 299 307 308 307 305 306 300 302 313 320 320 321 323 332 334 322 304 289 274 260 249 242 249 244 239
221 228 226 228 229 230 236 247 251 263 270 287 289 287 285 289 291 293 297 296 305 302 299 302 308 312 315 313 312 317 332 330 337 335 323 288 268 249 233 236 241 235 235
227 231 234 232 228 237 244 246 248 262 264 293 280 281 283 283 292 307 292 324 279 294 298 297 307 311 314 317 313 327 328 336 344 352 348 316 269 243 233 224 228 225 229
234 232 236 232 231 238 240 247 253 270 286 265 271 274 275 292 303 309 311 298 300 284 295 304 299 308 313 318 315 334 335 337 348 3 355 2 299 256 232 222 219 219 228
231 228 234 236 237 241 247 257 269 274 279 283 282 290 284 291 305 288 310 295 296 301 312 313 306 311 311 322 326 336 357 357 350 7 4 10 10 247 247 218 220 219 226
221 233 237 235 242 239 245 263 284 287 287 282 282 296 289 295 298 315 285 299 303 306 316 299 313 310 311 324 329 330 348 356 356 2 1 5 19 10 215 228 228 225 228
259 245 237 236 245 246 259 253 266 274 269 287 291 299 300 318 310 276 313 322 319 310 297 314 321 310 314 332 331 319 338 3 360 14 15 18 20 32 14 200 220 226 226
246 241 242 243 260 270 259 242 254 274 281 280 282 294 287 277 294 309 320 327 333 334 343 3 341 327 324 342 354 344 348 353 4 8 24 22 28 26 42 359 314 198 227
218 226 243 250 270 287 297 296 290 272 275 276 282 284 292 302 303 307 317 328 338 2 15 8 330 318 326 343 352 3 3 7 3 4 20 22 35 29 33 43 52 67 75
221 236 265 284 287 261 253 271 289 277 276 287 279 293 297 308 309 305 311 324 1 356 342 326 321 336 353 357 1 4 7 15 18 12 19 44 38 36 34 34 43 53 57
226 265 263 276 248 244 251 263 270 288 280 283 290 287 321 333 323 321 319 2 76 47 318 322 335 345 346 352 4 15 13 18 33 31 29 35 43 46 38 37 33 43 48
260 272 226 222 214 216 211 241 236 261 264 259 274 306 317 324 333 327 302 267 357 318 316 355 30 31 26 27 26 27 33 24 24 40 34 35 37 43 50 41 35 37 48
260 242 232 262 230 200 229 201 210 256 291 289 262 253 266 285 301 316 342 5 11 23 7 7 19 22 14 9 13 12 16 28 28 29 30 31 42 37 40 50 41 41 38
274 244 249 242 191 200 225 262 279 287 269 255 276 304 296 284 281 306 356 351 49 30 13 11 355 6 360 353 352 356 1 18 38 35 24 28 33 40 30 29 39 46 46
225 243 204 246 242 224 243 235 239 245 236 257 284 303 328 328 322 261 144 12 1 24 7 335 18 343 345 330 344 352 353 1 34 44 43 30 34 31 31 26 30 36 43
248 228 211 210 209 211 245 268 248 237 258 246 251 273 314 313 346 307 160 58 357 314 356 332 320 324 4 348 11 37 36 35 55 59 46 38 50 33 34 32 28 33 34
220 230 225 237 246 251 242 258 257 252 239 244 240 239 240 277 297 324 153 165 232 281 46 6 338 3 17 25 40 47 50 50 47 54 60 40 53 51 42 46 35 34 37
217 219 229 248 250 253 263 253 255 252 248 233 234 233 235 232 233 222 200 202 148 49 33 328 61 324 16 26 34 36 37 41 39 37 35 49 35 54 53 51 43 36 44
243 248 256 259 260 259 259 260 252 244 241 240 238 233 233 227 218 208 206 191 163 273 178 266 312 318 321 0 356 10 14 21 31 28 25 23 30 37 51 48 48 53 36